• în Republica Moldova
  • Lista ţărilor
  • Pe 7 zile
  • Temperatura apei
  • Hartă satelitară
  • Meteo pe hartă
  • Widget-uri
  • user-avatar
    Intrare

    Meteo pe oră la Innsbruck

    Astăzi, 28 Iunie, Miercuri

    Timp Temperatura Precipitaţii Vânt Presiune Umiditate
    00:00 +8°C° 0 mm 2 m/s 592 mmHg 95%
    01:00 +8°C° 0 mm 2 m/s 592 mmHg 95%
    02:00 +8°C° 0 mm 2 m/s 592 mmHg 94%
    03:00 +8°C° 0 mm 2 m/s 591 mmHg 94%
    04:00 +8°C° 0 mm 2 m/s 591 mmHg 93%
    05:00 +9°C° 0,1 mm 2 m/s 591 mmHg 91%
    06:00 +10°C° 0,1 mm 2 m/s 592 mmHg 88%
    07:00 +10°C° 0,1 mm 2 m/s 592 mmHg 86%
    08:00 +12°C° 0,4 mm 2 m/s 592 mmHg 82%
    09:00 +13°C° 0,4 mm 2 m/s 593 mmHg 79%
    10:00 +14°C° 0,4 mm 2 m/s 593 mmHg 76%
    11:00 +14°C° 0,9 mm 2 m/s 593 mmHg 76%
    12:00 +14°C° 0,9 mm 2 m/s 593 mmHg 76%
    13:00 +14°C° 0,9 mm 2 m/s 592 mmHg 76%
    14:00 +14°C° 0,5 mm 2 m/s 592 mmHg 76%
    15:00 +14°C° 0,5 mm 2 m/s 591 mmHg 77%
    16:00 +14°C° 0,5 mm 2 m/s 591 mmHg 77%
    17:00 +13°C° 1,1 mm 2 m/s 590 mmHg 83%
    18:00 +12°C° 1,1 mm 1 m/s 589 mmHg 88%
    19:00 +11°C° 1,1 mm 1 m/s 589 mmHg 93%
    20:00 +10°C° 2,1 mm 1 m/s 588 mmHg 94%
    21:00 +9°C° 2,1 mm 1 m/s 587 mmHg 96%
    22:00 +8°C° 2,1 mm 1 m/s 587 mmHg 97%
    23:00 +8°C° 1,1 mm 1 m/s 587 mmHg 97%

    Mâine, 29 Iunie, Joi

    Timp Temperatura Precipitaţii Vânt Presiune Umiditate
    00:00 +7°C° 1,1 mm 1 m/s 586 mmHg 97%
    01:00 +7°C° 1,1 mm 1 m/s 586 mmHg 98%
    02:00 +7°C° 1,6 mm 1 m/s 586 mmHg 98%
    03:00 +7°C° 1,6 mm 1 m/s 586 mmHg 98%
    04:00 +6°C° 1,6 mm 1 m/s 586 mmHg 98%
    05:00 +7°C° 1 mm 1 m/s 586 mmHg 97%
    06:00 +7°C° 1 mm 1 m/s 587 mmHg 96%
    07:00 +7°C° 1 mm 1 m/s 587 mmHg 95%
    08:00 +8°C° 0,8 mm 1 m/s 588 mmHg 93%
    09:00 +8°C° 0,8 mm 1 m/s 588 mmHg 91%
    10:00 +9°C° 0,8 mm 1 m/s 589 mmHg 89%
    11:00 +10°C° 0,7 mm 1 m/s 589 mmHg 83%
    12:00 +11°C° 0,7 mm 1 m/s 590 mmHg 77%
    13:00 +12°C° 0,7 mm 1 m/s 590 mmHg 72%
    14:00 +12°C° 0,9 mm 1 m/s 590 mmHg 73%
    15:00 +12°C° 0,9 mm 1 m/s 590 mmHg 75%
    16:00 +12°C° 0,9 mm 1 m/s 590 mmHg 77%
    17:00 +10°C° 1,1 mm 1 m/s 590 mmHg 82%
    18:00 +9°C° 1,1 mm 1 m/s 590 mmHg 88%
    19:00 +8°C° 1,1 mm 1 m/s 590 mmHg 93%
    20:00 +8°C° 1,2 mm 1 m/s 590 mmHg 95%
    21:00 +7°C° 1,2 mm 1 m/s 590 mmHg 96%
    22:00 +6°C° 1,2 mm 1 m/s 590 mmHg 98%
    23:00 +6°C° 0,9 mm 1 m/s 590 mmHg 98%

    Poimâine, 30 Iunie, Vineri

    Timp Temperatura Precipitaţii Vânt Presiune Umiditate
    00:00 +5°C° 0,9 mm 1 m/s 590 mmHg 98%
    01:00 +5°C° 0,9 mm 1 m/s 590 mmHg 98%
    02:00 +5°C° 1,8 mm 1 m/s 590 mmHg 98%
    03:00 +5°C° 1,8 mm 1 m/s 590 mmHg 97%
    04:00 +4°C° 1,8 mm 1 m/s 590 mmHg 97%
    05:00 +4°C° 1,4 mm 1 m/s 590 mmHg 96%
    06:00 +5°C° 1,4 mm 1 m/s 590 mmHg 95%
    07:00 +5°C° 1,4 mm 1 m/s 590 mmHg 95%
    08:00 +6°C° 0,5 mm 1 m/s 591 mmHg 91%
    09:00 +7°C° 0,5 mm 1 m/s 592 mmHg 86%
    10:00 +8°C° 0,5 mm 1 m/s 593 mmHg 82%
    11:00 +9°C° 0,4 mm 1 m/s 593 mmHg 77%
    12:00 +9°C° 0,4 mm 2 m/s 593 mmHg 72%
    13:00 +10°C° 0,4 mm 2 m/s 594 mmHg 67%
    14:00 +9°C° 1,1 mm 2 m/s 593 mmHg 71%
    15:00 +8°C° 1,1 mm 2 m/s 593 mmHg 76%
    16:00 +8°C° 1,1 mm 2 m/s 593 mmHg 80%
    17:00 +8°C° 1,5 mm 1 m/s 593 mmHg 83%
    18:00 +7°C° 1,5 mm 1 m/s 593 mmHg 87%
    19:00 +6°C° 1,5 mm 1 m/s 592 mmHg 90%
    20:00 +5°C° 1,2 mm 1 m/s 592 mmHg 93%
    21:00 +4°C° 1,2 mm 1 m/s 592 mmHg 95%
    22:00 +3°C° 1,2 mm 1 m/s 592 mmHg 98%
    23:00 +3°C° 0,6 mm 1 m/s 592 mmHg 97%

    1 Iulie, Sâmbătă

    Timp Temperatura Precipitaţii Vânt Presiune Umiditate
    00:00 +3°C° 0,6 mm 1 m/s 592 mmHg 97%
    01:00 +3°C° 0,6 mm 1 m/s 592 mmHg 96%
    02:00 +3°C° 0,2 mm 1 m/s 592 mmHg 95%
    03:00 +2°C° 0,2 mm 1 m/s 591 mmHg 95%
    04:00 +2°C° 0,2 mm 1 m/s 591 mmHg 94%
    05:00 +3°C° 0 mm 1 m/s 592 mmHg 91%
    06:00 +5°C° 0 mm 1 m/s 593 mmHg 87%
    07:00 +5°C° 0 mm 0 m/s 593 mmHg 84%
    08:00 +7°C° 0 mm 1 m/s 594 mmHg 76%
    09:00 +9°C° 0 mm 1 m/s 595 mmHg 69%
    10:00 +10°C° 0 mm 1 m/s 595 mmHg 62%
    11:00 +10°C° 0,6 mm 1 m/s 595 mmHg 65%
    12:00 +11°C° 0,6 mm 1 m/s 595 mmHg 68%
    13:00 +11°C° 0,6 mm 1 m/s 595 mmHg 70%
    14:00 +10°C° 1,6 mm 1 m/s 595 mmHg 75%
    15:00 +9°C° 1,6 mm 1 m/s 595 mmHg 79%
    16:00 +9°C° 1,6 mm 1 m/s 594 mmHg 83%
    17:00 +8°C° 2,1 mm 1 m/s 594 mmHg 87%
    18:00 +7°C° 2,1 mm 1 m/s 594 mmHg 90%
    19:00 +6°C° 2,1 mm 1 m/s 594 mmHg 94%
    20:00 +6°C° 0,9 mm 1 m/s 594 mmHg 95%
    21:00 +5°C° 0,9 mm 1 m/s 594 mmHg 96%
    22:00 +4°C° 0,9 mm 1 m/s 594 mmHg 97%
    23:00 +4°C° 0,1 mm 1 m/s 594 mmHg 97%

    2 Iulie, Duminică

    Timp Temperatura Precipitaţii Vânt Presiune Umiditate
    00:00 +3°C° 0,1 mm 1 m/s 594 mmHg 97%
    01:00 +3°C° 0,1 mm 1 m/s 593 mmHg 96%
    02:00 +3°C° 0,1 mm 1 m/s 593 mmHg 96%
    03:00 +2°C° 0,1 mm 1 m/s 593 mmHg 96%
    04:00 +2°C° 0,1 mm 1 m/s 594 mmHg 96%
    05:00 +3°C° 0,5 mm 1 m/s 594 mmHg 95%
    06:00 +4°C° 0,5 mm 1 m/s 595 mmHg 94%
    07:00 +5°C° 0,5 mm 1 m/s 595 mmHg 93%
    08:00 +6°C° 0,7 mm 1 m/s 596 mmHg 90%
    09:00 +5°C° 0,7 mm 2 m/s 596 mmHg 88%
    10:00 +6°C° 0,7 mm 2 m/s 597 mmHg 85%
    11:00 +7°C° 0,3 mm 2 m/s 597 mmHg 81%
    12:00 +8°C° 0,3 mm 2 m/s 598 mmHg 77%
    13:00 +9°C° 0,3 mm 2 m/s 598 mmHg 72%
    14:00 +9°C° 0,1 mm 2 m/s 598 mmHg 70%
    15:00 +9°C° 0,1 mm 2 m/s 598 mmHg 68%
    16:00 +10°C° 0,1 mm 2 m/s 598 mmHg 67%
    17:00 +8°C° 0,2 mm 2 m/s 598 mmHg 73%
    18:00 +7°C° 0,2 mm 2 m/s 598 mmHg 80%
    19:00 +7°C° 0,2 mm 1 m/s 598 mmHg 87%
    20:00 +6°C° 0,2 mm 1 m/s 598 mmHg 89%
    21:00 +6°C° 0,2 mm 1 m/s 598 mmHg 92%
    22:00 +5°C° 0,2 mm 1 m/s 598 mmHg 95%
    23:00 +5°C° 0,3 mm 1 m/s 597 mmHg 95%

    3 Iulie, Luni

    Timp Temperatura Precipitaţii Vânt Presiune Umiditate
    00:00 +4°C° 0,3 mm 1 m/s 597 mmHg 95%
    01:00 +4°C° 0,3 mm 1 m/s 597 mmHg 96%
    02:00 +4°C° 0,1 mm 1 m/s 597 mmHg 96%
    03:00 +4°C° 0,1 mm 1 m/s 597 mmHg 96%
    04:00 +4°C° 0,1 mm 1 m/s 597 mmHg 96%
    05:00 +5°C° 0 mm 1 m/s 597 mmHg 93%
    06:00 +6°C° 0 mm 1 m/s 598 mmHg 91%
    07:00 +7°C° 0 mm 1 m/s 598 mmHg 88%
    08:00 +8°C° 0,1 mm 1 m/s 599 mmHg 83%
    09:00 +9°C° 0,1 mm 1 m/s 599 mmHg 79%
    10:00 +10°C° 0,1 mm 1 m/s 599 mmHg 74%
    11:00 +10°C° 0,2 mm 2 m/s 599 mmHg 69%
    12:00 +12°C° 0,2 mm 2 m/s 600 mmHg 64%
    13:00 +13°C° 0,2 mm 2 m/s 600 mmHg 59%
    14:00 +13°C° 0,2 mm 2 m/s 599 mmHg 60%
    15:00 +11°C° 0,2 mm 3 m/s 599 mmHg 60%
    16:00 +11°C° 0,2 mm 3 m/s 599 mmHg 60%
    17:00 +10°C° 0,2 mm 2 m/s 599 mmHg 68%
    18:00 +9°C° 0,2 mm 2 m/s 598 mmHg 76%
    19:00 +7°C° 0,2 mm 2 m/s 598 mmHg 83%
    20:00 +6°C° 0,2 mm 2 m/s 598 mmHg 87%
    21:00 +6°C° 0,2 mm 1 m/s 598 mmHg 91%
    22:00 +5°C° 0,2 mm 1 m/s 597 mmHg 95%
    23:00 +5°C° 0,3 mm 1 m/s 597 mmHg 95%
    Arată mai mult